Wind_Speed
20 22 22 21 21 20 21 22 21 21 20 18 18 18 20 22 22 22 22 22 22 23 22 22 22 22 22 23 23 24 25 26 25 24 24 23 22 22 22 21 20 20 19 19 19 19 19 19 18 20 19 20 21 21 21 21 22 22 23 23 24 24 25 24 24 24 23 22 21 21 22 22 23 22 22 21 21 22 22 22 22 22 21 21 20
23 23 23 21 22 20 20 22 22 21 20 19 18 18 20 22 22 22 22 22 22 22 22 22 22 22 22 23 24 25 25 25 24 24 23 23 22 22 22 21 20 19 19 19 19 19 19 18 18 19 19 19 20 20 21 22 23 24 23 24 24 24 25 25 24 23 23 22 22 22 22 21 21 21 22 21 21 21 21 21 22 22 20 19 19
27 24 22 21 21 20 20 22 23 21 20 19 18 19 21 22 23 22 22 21 21 21 21 21 21 22 22 23 24 24 24 23 23 24 24 23 23 22 22 21 20 19 19 18 18 18 18 18 18 18 17 17 19 20 20 21 24 25 23 24 26 25 25 25 23 22 22 22 22 23 23 22 21 20 20 20 19 19 19 19 19 20 18 17 17
28 26 22 21 20 20 20 22 23 21 21 20 18 19 21 22 22 22 22 21 21 21 21 21 21 22 22 22 23 23 23 23 24 24 24 23 23 22 21 21 20 19 19 18 18 17 17 18 17 16 16 16 17 19 19 19 21 21 21 22 24 24 23 23 22 21 20 20 20 21 22 21 20 18 18 17 17 17 17 16 17 17 16 15 15
29 26 23 21 20 20 19 22 23 21 21 20 19 19 21 22 21 22 21 21 21 21 21 21 22 22 22 22 22 22 22 23 25 24 23 23 22 22 21 20 19 19 18 18 17 17 16 15 15 14 15 15 16 17 17 18 19 19 19 21 21 21 21 21 19 18 17 18 19 19 19 19 18 17 16 15 15 16 15 15 15 15 15 14 14
30 26 24 23 20 19 19 21 23 22 21 20 19 19 20 21 21 21 20 21 21 21 21 22 22 22 22 22 22 22 22 24 25 23 23 23 22 21 20 20 19 19 18 17 18 17 16 15 13 13 13 14 14 15 17 18 18 18 18 18 17 17 17 18 18 16 16 18 19 20 20 19 19 17 16 15 15 15 15 14 14 14 14 14 15
29 26 25 23 20 19 19 21 22 22 21 20 20 20 20 20 21 20 20 20 20 21 21 22 22 22 22 22 21 21 22 25 25 22 22 23 22 21 20 19 18 18 18 17 17 16 16 16 13 13 14 14 15 16 17 17 16 16 14 13 11 10 9 11 16 16 16 18 20 20 20 19 19 18 16 15 16 16 15 14 14 14 14 14 15
27 26 24 23 21 19 19 21 22 22 21 20 20 20 20 20 21 20 20 20 20 20 21 22 22 22 22 22 21 20 23 25 24 21 21 22 21 20 19 18 17 17 17 16 14 14 15 15 14 15 16 16 16 16 16 15 14 13 13 13 12 11 7 9 15 15 15 17 18 18 19 19 18 17 16 15 15 15 15 15 16 16 16 15 15
25 24 23 23 21 20 20 21 22 22 21 20 21 21 20 20 20 20 19 19 19 20 20 21 21 21 20 21 20 21 25 25 23 21 21 22 20 19 18 16 16 16 15 15 13 12 13 14 15 15 15 15 15 15 15 14 13 13 16 16 15 14 11 12 17 15 15 16 16 17 18 18 18 18 16 15 15 15 16 16 16 16 16 16 16
24 23 23 22 21 20 20 21 21 21 21 21 22 21 20 20 20 20 19 19 19 19 20 21 20 20 19 19 19 22 25 24 21 20 21 21 20 18 17 16 15 15 14 14 13 12 12 13 14 14 14 14 14 13 13 13 14 16 17 17 18 18 17 18 19 15 15 16 16 17 18 18 18 18 17 16 16 16 17 16 16 16 17 17 17
22 22 23 22 21 21 20 21 20 20 21 21 21 22 20 19 20 20 19 18 18 19 20 20 19 19 18 18 19 22 24 22 20 20 20 20 19 17 17 16 15 14 13 13 12 11 11 13 13 14 14 14 13 13 12 14 16 18 18 17 18 18 19 19 18 15 15 16 17 18 19 18 17 16 16 17 17 17 17 16 16 16 17 16 16
20 22 23 22 20 20 20 20 19 20 20 21 21 22 20 20 20 20 19 18 17 18 19 19 19 18 17 17 20 22 23 22 20 20 20 19 18 17 16 15 14 13 12 12 11 10 10 11 13 14 15 14 13 12 13 15 16 18 19 18 17 17 17 16 16 16 16 17 18 19 19 18 17 16 16 16 17 17 17 17 17 17 16 15 16
20 21 22 21 19 19 19 19 19 20 21 21 21 21 20 20 20 19 19 17 16 17 19 19 18 18 18 18 20 21 22 21 20 20 20 18 17 16 15 14 14 13 12 11 10 10 10 10 13 15 15 14 13 13 15 15 17 18 19 18 17 16 15 14 15 16 18 20 20 19 18 17 16 16 16 16 16 16 16 17 17 16 16 15 15
21 21 22 20 19 18 18 18 18 20 21 22 21 20 20 21 20 18 17 16 16 17 18 19 18 18 18 19 19 21 21 20 20 20 18 17 17 16 14 14 13 12 11 11 10 10 9 10 14 17 16 14 14 14 15 16 17 18 18 19 17 15 14 14 15 17 20 21 20 18 18 16 16 16 16 16 16 16 16 16 16 15 15 14 14
21 22 22 20 19 18 18 18 18 20 22 22 21 19 20 21 19 17 17 16 16 17 18 18 18 18 19 19 19 20 20 20 19 18 17 16 15 15 14 14 12 11 10 10 11 11 10 12 16 18 16 15 15 14 15 17 18 16 17 18 17 15 12 13 14 16 19 20 19 18 18 17 16 16 16 16 15 15 15 15 15 15 14 14 14
21 24 23 20 18 17 17 18 19 21 22 22 21 20 20 19 17 17 16 16 16 17 18 17 18 19 19 19 19 20 20 20 19 17 16 15 14 14 14 13 12 11 10 10 11 11 12 14 17 18 17 16 14 14 16 17 17 17 18 18 16 14 12 13 14 15 18 19 18 18 18 17 16 16 16 16 15 15 15 14 14 14 14 14 14
24 26 23 20 19 19 18 18 20 21 22 22 21 20 20 18 17 17 16 16 17 18 19 18 19 20 19 18 18 19 19 19 17 17 16 14 14 14 13 12 11 11 10 10 11 12 14 16 19 19 18 16 14 14 16 17 18 18 20 18 15 13 12 13 15 15 16 18 19 18 17 17 16 16 15 15 15 15 14 14 14 14 14 13 13
27 26 24 21 20 20 19 20 21 22 22 22 21 21 20 19 18 17 16 16 18 20 20 20 20 20 18 17 18 18 18 17 16 16 14 13 15 14 12 12 11 10 10 10 11 13 14 17 20 20 18 16 15 15 16 19 19 20 20 16 13 12 12 13 15 16 18 20 19 17 16 16 16 15 14 15 15 15 14 14 14 14 13 13 12
27 26 24 21 21 20 20 21 22 23 23 23 22 21 20 19 18 17 16 17 19 20 20 20 20 20 17 16 16 17 16 15 15 14 13 14 15 13 11 11 10 10 9 10 11 12 14 18 21 20 17 16 14 14 16 19 18 19 19 15 12 12 11 12 15 18 20 20 18 16 16 16 15 14 14 14 14 14 14 14 14 13 13 13 12
25 26 24 21 21 21 21 22 23 23 23 23 22 21 20 19 18 17 17 18 19 19 19 19 20 19 17 15 15 16 16 15 14 14 14 14 14 12 11 10 9 9 9 9 11 12 13 16 20 20 18 16 14 14 17 19 17 16 17 14 12 10 10 12 15 19 21 20 18 17 15 15 15 14 14 13 14 13 13 13 13 13 13 12 11
23 24 24 22 21 21 21 22 23 23 23 23 22 22 20 20 19 18 19 19 18 18 18 18 19 18 16 15 15 16 17 16 14 14 14 14 13 12 11 9 8 8 8 9 11 12 12 14 18 21 19 16 15 15 17 18 16 13 14 13 11 10 11 13 16 18 20 19 17 16 15 15 14 13 13 13 13 13 12 12 12 12 12 12 12
22 22 22 22 22 22 22 22 23 23 24 24 23 22 22 21 20 19 20 19 18 18 18 19 19 18 16 16 16 16 17 16 15 15 14 13 12 11 9 8 8 8 9 10 11 12 12 13 17 20 20 17 15 15 15 15 14 11 10 11 11 12 13 14 15 17 18 17 16 15 15 14 14 13 13 13 13 13 13 13 13 12 12 12 12
22 22 22 23 23 23 23 23 24 25 25 25 25 24 23 22 21 20 21 20 18 18 19 19 20 19 18 17 16 16 16 16 15 14 14 12 11 10 9 8 8 8 10 11 11 13 14 14 17 20 20 17 15 14 12 11 10 9 8 11 11 13 13 14 14 15 17 16 15 15 15 14 13 13 13 13 13 12 12 12 12 12 12 12 12
23 23 23 24 24 25 24 24 25 25 25 26 26 25 25 24 23 22 22 21 19 19 19 19 20 20 18 17 16 15 15 14 13 13 13 12 11 10 9 8 9 9 11 13 13 14 15 16 18 20 20 17 15 12 10 8 9 9 8 12 13 13 13 14 13 14 15 15 14 13 14 14 12 13 13 12 12 12 12 11 11 11 11 12 11
24 25 25 25 25 25 25 24 24 24 24 25 25 25 25 25 24 24 23 22 20 19 18 18 19 19 19 18 17 15 14 14 13 14 14 13 12 11 10 9 10 11 12 14 14 14 16 16 18 19 18 15 13 10 7 7 9 9 11 14 14 13 14 14 12 12 14 14 13 13 14 13 12 12 12 11 11 11 11 11 11 10 10 10 10
24 25 26 25 24 25 26 26 25 24 24 24 24 24 24 25 25 24 23 21 20 19 19 18 19 19 20 19 18 17 15 15 15 15 15 14 13 12 11 10 11 12 14 15 15 14 15 16 17 17 16 14 12 8 5 6 8 10 14 15 14 14 14 14 13 13 13 14 13 13 12 13 12 12 11 11 12 11 11 11 11 10 10 9 10
21 20 23 23 22 24 25 25 26 25 24 24 24 23 23 24 24 23 22 21 21 20 20 19 19 19 21 20 19 19 18 17 16 16 16 15 13 12 11 10 11 14 15 15 16 14 13 15 16 16 14 12 10 5 3 3 6 9 14 15 14 13 13 13 14 14 14 14 13 13 12 12 12 12 11 11 11 11 11 11 11 11 11 10 9
19 15 19 21 21 24 25 25 25 24 24 25 25 23 23 23 23 22 21 22 21 22 21 20 20 20 20 20 19 20 19 19 18 16 16 15 13 12 11 10 12 15 15 15 16 15 13 13 14 15 13 9 7 4 1 1 5 7 12 14 13 13 13 14 14 14 13 13 14 13 12 12 12 12 12 12 12 12 11 11 11 11 12 11 10
22 17 18 22 22 22 24 25 25 24 24 25 25 24 23 22 22 22 21 22 21 21 20 19 19 20 20 20 20 21 21 21 19 17 17 16 14 13 11 11 14 15 14 15 15 15 14 13 13 13 11 8 6 5 4 4 5 7 11 13 12 12 13 14 13 13 13 13 13 13 12 12 13 13 13 14 13 12 11 11 11 10 11 13 13
24 22 19 22 24 22 22 25 25 25 24 24 25 25 23 22 21 21 21 21 21 20 20 19 19 20 20 19 19 20 21 22 20 19 19 17 16 15 13 12 14 14 14 14 14 14 13 13 13 12 9 7 6 7 7 6 6 8 12 12 11 11 12 13 12 12 12 13 13 13 12 12 12 13 14 15 13 12 11 9 9 10 10 11 13
24 25 22 23 25 24 21 23 26 26 25 25 25 25 23 22 21 21 21 21 20 20 21 20 20 20 20 20 20 19 21 23 22 21 20 19 18 17 15 13 14 14 13 12 12 13 13 12 12 11 9 8 9 10 9 8 8 9 11 12 12 11 12 13 12 11 11 12 13 13 12 12 12 13 14 14 12 11 9 8 7 7 7 8 10
26 26 24 24 27 27 22 22 27 27 26 26 26 26 24 23 22 22 22 21 21 21 21 21 20 20 20 20 20 19 21 23 22 22 21 20 19 18 15 13 13 13 12 10 9 11 12 11 10 10 9 11 12 12 10 10 10 10 11 13 13 13 13 13 12 11 11 12 13 13 12 12 13 14 15 14 12 9 8 7 6 5 5 5 6
29 27 24 24 26 27 24 23 26 28 28 27 27 26 25 24 23 23 23 22 21 21 21 21 20 21 21 22 21 20 21 23 23 22 20 20 19 18 15 14 13 12 12 10 8 10 12 10 10 10 11 13 14 14 12 11 12 11 11 12 14 15 14 12 12 12 12 12 13 13 13 13 14 15 15 14 11 8 7 5 5 4 4 4 5
30 31 29 26 24 25 25 25 27 29 30 29 28 27 26 25 25 24 24 23 23 22 21 21 21 21 22 23 22 21 22 23 23 22 21 20 19 17 16 15 14 11 11 11 9 11 13 11 12 12 12 15 16 15 15 14 13 11 11 12 14 15 14 12 13 13 13 13 13 13 13 13 13 13 13 11 9 7 5 5 5 4 4 3 3
31 33 32 27 24 23 22 25 28 30 31 31 29 28 27 27 27 27 26 25 24 23 22 22 22 22 23 23 22 22 23 24 24 23 22 20 19 18 17 17 15 12 12 13 11 13 14 13 13 14 15 16 17 17 16 15 14 12 12 12 15 16 15 14 14 13 13 14 13 12 12 10 10 10 10 9 7 6 5 5 5 4 4 3 2
31 30 30 28 27 23 17 21 27 29 31 31 30 29 28 29 28 27 27 26 25 24 23 22 22 23 23 23 23 23 24 25 24 23 23 22 20 19 17 16 14 12 12 12 11 12 14 13 13 13 16 17 17 16 15 15 14 14 14 15 16 17 16 16 16 14 13 13 13 12 10 9 7 8 8 7 6 6 5 4 4 4 4 3 3
28 24 25 29 30 24 13 14 22 27 30 31 31 30 29 29 28 27 26 26 25 24 23 21 22 23 24 23 23 24 24 25 25 24 24 24 22 20 17 15 14 12 12 13 12 12 13 15 16 14 15 17 17 17 16 16 16 16 16 16 17 17 17 17 16 14 13 13 13 11 9 8 7 7 7 7 6 6 6 5 4 4 4 3 4
27 23 20 24 29 26 18 18 22 25 29 30 31 29 28 27 26 25 24 24 24 24 23 22 21 22 23 23 23 24 25 26 26 25 24 25 23 20 18 16 15 13 12 12 12 12 12 15 18 15 13 15 17 18 18 18 18 17 17 17 16 17 17 16 15 14 13 13 12 11 9 8 8 8 8 7 6 6 6 5 4 4 4 3 3
27 25 22 21 26 28 26 27 25 24 27 29 29 27 26 25 23 22 22 22 22 23 23 23 23 22 23 23 23 23 25 26 26 24 22 22 20 18 18 17 15 14 13 11 10 12 12 13 15 15 14 13 15 18 19 19 18 18 17 16 15 16 16 14 13 13 13 13 13 11 10 9 9 9 9 8 8 7 7 6 5 5 5 5 4
26 26 26 25 27 31 31 28 24 24 26 28 29 26 23 23 22 22 22 22 22 22 22 22 23 23 23 24 23 23 25 26 24 22 19 17 17 17 18 17 16 15 14 12 11 11 12 13 13 16 18 15 15 17 20 21 20 17 16 15 14 13 13 13 12 14 16 17 15 12 11 10 10 11 11 10 9 8 8 7 7 6 6 6 5
27 29 30 30 31 32 32 29 26 25 27 28 29 27 24 23 23 24 23 22 22 21 21 21 23 24 24 24 24 24 26 25 22 20 19 17 17 17 16 17 16 16 15 13 12 12 12 13 14 17 19 19 18 18 21 23 21 16 12 11 12 12 12 13 13 16 19 19 16 14 12 12 12 12 12 11 9 9 8 7 7 7 7 7 7
31 34 34 34 33 31 31 31 29 29 29 30 30 29 28 26 26 27 24 23 22 20 21 21 22 23 24 23 24 26 26 24 22 20 19 18 17 16 16 17 17 16 14 13 14 14 14 15 16 17 19 20 21 21 24 23 18 15 13 9 7 7 9 11 12 13 14 15 15 14 13 13 13 13 13 11 10 10 8 6 6 7 8 8 10
36 38 38 37 35 32 30 31 33 32 31 32 32 31 30 27 25 25 24 23 23 21 20 20 21 22 23 23 24 26 26 23 22 20 19 17 17 17 16 17 17 16 16 15 15 16 15 17 17 17 19 20 20 24 26 21 18 17 13 7 3 4 5 6 8 10 11 11 13 14 14 14 13 12 12 11 12 11 7 5 6 8 9 10 12
35 35 35 36 38 36 33 34 34 35 35 35 35 31 29 26 22 21 21 21 21 21 19 19 20 20 22 23 24 25 24 23 21 20 19 18 17 17 17 17 16 16 16 15 15 17 16 17 20 20 22 22 20 24 24 18 21 21 10 3 3 3 2 4 7 8 10 12 12 13 14 13 13 12 12 11 12 12 9 5 6 9 10 11 12
35 36 36 36 39 40 38 37 37 37 37 38 36 32 28 26 21 17 17 16 16 18 19 19 20 21 22 23 24 23 23 23 21 19 19 18 18 17 17 16 15 14 14 14 16 17 16 18 21 22 25 26 24 26 22 16 24 25 14 7 5 2 2 6 8 5 8 11 10 11 11 11 12 12 13 12 12 12 10 8 8 9 10 11 12
33 35 33 29 30 37 39 37 36 36 35 35 35 32 29 27 23 20 20 18 16 18 21 22 23 23 23 23 23 22 22 22 20 19 18 18 18 18 17 16 15 15 13 14 17 17 17 18 21 22 25 27 26 27 22 19 25 21 14 13 7 3 7 10 7 3 5 7 8 10 10 11 12 11 13 13 13 14 12 10 10 10 10 10 11
22 22 19 16 15 26 33 34 34 34 34 33 33 33 30 28 26 24 24 23 20 20 21 23 24 25 24 24 23 22 22 21 20 19 18 18 18 17 16 16 17 15 13 15 17 17 18 19 21 23 25 27 27 28 23 21 25 18 12 13 5 5 16 17 7 4 4 3 6 10 10 11 11 11 13 16 16 16 14 12 11 11 10 10 10
16 14 12 10 7 12 20 26 30 32 34 33 32 32 31 29 29 26 24 24 23 21 21 21 23 23 23 24 24 22 22 21 20 20 19 18 17 15 15 16 17 16 16 18 18 17 18 19 22 24 25 27 27 29 27 24 26 19 13 13 7 8 20 19 13 11 6 2 4 7 8 11 12 11 15 18 18 17 15 13 11 10 10 9 9
16 15 16 14 11 11 13 17 24 29 32 32 31 31 31 30 30 28 25 23 22 22 21 21 21 22 23 24 24 23 22 21 20 20 19 18 16 15 15 17 17 18 19 19 18 17 18 20 24 25 25 27 27 28 28 27 27 22 16 14 9 13 18 15 15 15 8 5 4 4 7 10 10 12 18 20 19 17 15 13 11 10 9 8 9
5 11 16 19 19 20 18 17 22 27 28 29 30 30 31 30 30 29 26 23 20 20 20 21 21 22 23 24 23 23 23 22 21 20 19 18 16 15 16 17 18 18 20 20 18 17 17 19 23 26 26 25 25 27 27 27 27 22 18 16 14 17 15 10 13 15 9 6 4 4 9 11 10 13 19 22 20 17 14 13 11 9 8 9 10
2 8 14 19 24 28 25 20 22 25 26 28 29 30 30 30 30 29 27 25 22 21 21 22 22 23 23 24 24 24 23 23 22 22 20 18 17 16 17 17 18 19 20 20 19 17 17 19 21 24 25 24 23 24 26 27 26 21 18 17 17 21 19 13 16 18 12 8 6 5 9 14 15 16 20 21 21 19 14 12 11 9 9 9 9
Wind_Direction
164 162 159 161 162 159 155 153 152 151 149 149 144 142 140 137 135 132 130 129 127 123 121 120 118 116 111 107 103 101 100 100 101 100 99 98 97 97 97 96 97 97 94 92 89 88 88 87 87 93 94 94 93 88 85 85 90 92 94 96 95 96 94 89 89 89 87 88 88 90 90 90 91 90 89 87 86 87 89 90 90 88 87 87 86
167 164 161 163 163 159 154 152 153 153 151 151 146 144 142 139 136 133 132 130 129 125 122 121 119 116 112 107 105 104 105 105 104 103 101 99 98 97 97 96 97 98 96 93 91 92 91 88 87 92 94 94 92 90 87 85 88 90 91 92 92 92 92 89 88 87 86 86 85 86 85 85 87 87 87 86 86 85 86 87 86 86 87 87 87
162 164 162 163 163 159 154 151 153 154 153 153 149 146 144 141 138 136 134 132 130 127 125 122 120 116 112 109 108 109 109 108 106 105 103 100 98 98 97 96 97 96 97 94 92 92 93 92 90 93 94 94 95 94 90 89 91 90 90 90 91 88 87 86 86 87 88 87 86 85 81 80 80 82 84 83 84 83 84 84 84 84 86 86 85
161 164 162 163 163 160 156 151 153 155 155 154 151 148 146 143 139 139 136 134 132 128 127 123 121 117 114 112 111 111 111 110 108 107 105 102 100 99 97 96 96 96 96 95 94 94 96 96 95 96 93 92 96 97 94 94 95 92 90 89 88 85 83 82 82 85 87 87 86 85 82 80 76 75 79 80 82 82 82 83 83 83 83 84 82
162 162 160 162 164 162 158 152 152 156 156 154 152 149 147 145 142 141 138 136 132 129 127 124 122 119 117 115 114 114 112 113 111 110 108 105 103 100 98 96 95 95 95 92 93 97 101 100 98 97 94 94 95 95 97 99 98 95 93 91 88 87 84 78 77 81 84 88 85 83 84 82 79 76 77 80 81 81 82 82 82 82 82 80 79
161 160 159 160 164 162 158 154 153 158 158 154 152 149 147 146 145 143 140 137 133 131 128 126 124 121 120 117 118 116 114 115 114 113 110 108 106 103 100 97 95 94 93 88 85 89 102 107 100 98 99 98 96 98 103 105 101 98 96 92 90 92 89 78 77 83 87 90 88 85 85 85 83 80 78 79 79 80 81 82 83 82 81 79 79
158 157 157 158 161 161 159 154 154 158 157 152 151 150 149 148 147 145 142 139 135 133 130 127 124 123 122 120 121 117 116 117 116 115 112 110 108 105 101 99 97 95 93 88 82 83 99 111 108 107 110 107 106 109 111 111 106 99 91 81 82 95 104 98 92 89 93 95 93 91 88 87 85 82 80 79 80 80 80 81 82 82 81 80 80
154 154 154 155 157 161 159 155 154 158 155 151 151 151 151 151 149 148 144 141 137 135 131 128 125 124 124 123 123 118 119 119 120 120 115 112 109 107 105 104 102 98 95 91 86 86 98 111 118 119 119 116 115 116 116 114 107 94 77 71 83 95 108 125 112 98 98 99 97 96 92 87 85 85 84 83 83 81 83 81 80 81 82 81 82
150 151 151 151 154 160 159 156 156 158 155 152 154 154 155 154 152 150 146 142 139 136 133 129 125 125 125 126 123 120 123 123 123 123 117 115 115 113 111 108 104 98 95 91 85 89 100 109 121 126 124 122 121 119 117 111 99 81 71 79 92 96 95 119 129 113 100 100 99 98 92 87 84 88 88 85 85 84 85 84 82 81 81 80 82
148 148 149 147 151 161 161 159 157 157 155 155 157 158 159 156 153 151 147 144 141 137 134 130 127 127 126 126 124 124 128 126 125 124 121 122 121 116 112 109 104 101 97 95 88 87 99 111 122 129 129 128 126 122 116 103 87 73 73 91 101 101 100 116 131 119 101 100 99 97 92 89 89 89 86 85 86 85 84 83 83 82 80 79 82
145 147 148 145 153 163 162 161 157 157 157 157 158 158 159 156 153 152 150 146 143 139 136 134 130 129 128 127 126 127 131 130 126 125 124 125 124 118 117 115 112 109 104 100 93 87 97 112 124 132 135 135 130 124 112 96 81 73 80 102 109 106 106 113 119 107 101 101 97 98 94 91 91 89 87 86 87 88 86 85 86 85 83 83 88
144 147 146 145 155 163 162 162 158 156 158 159 160 160 158 156 156 154 153 150 146 142 139 137 135 135 132 130 130 129 133 133 128 125 125 125 124 123 122 121 118 112 108 102 92 90 98 111 126 136 140 139 133 121 105 90 79 77 87 105 110 105 106 107 105 99 98 97 94 96 96 92 89 90 92 90 87 88 87 88 91 89 86 86 91
141 143 144 148 156 162 162 161 158 157 158 159 162 162 160 159 160 157 154 150 147 145 142 140 140 142 141 136 135 133 134 134 129 128 127 127 127 126 125 123 119 112 108 101 92 93 97 113 131 140 143 139 129 113 98 85 80 82 91 106 110 107 105 101 98 99 99 98 97 97 98 94 92 94 94 90 87 89 89 89 91 90 88 85 86
138 142 144 148 154 160 161 160 160 159 159 160 161 161 162 163 163 159 154 150 148 149 146 144 142 145 147 144 141 138 138 136 132 133 131 131 131 130 130 126 119 113 109 103 98 95 97 118 136 142 143 136 123 108 94 81 79 84 98 112 116 113 106 100 100 103 105 103 101 100 98 95 96 96 93 90 89 90 90 90 90 90 91 88 83
138 141 142 146 152 156 159 160 161 161 160 161 161 161 163 166 164 159 153 151 151 153 153 150 145 144 149 149 147 143 142 141 135 136 137 137 135 135 134 127 121 117 111 106 102 97 101 123 138 143 142 134 121 106 91 79 75 84 108 123 122 117 105 99 102 108 110 107 105 104 100 97 97 95 94 93 91 90 90 90 90 90 91 89 85
137 138 139 144 151 154 157 160 161 162 161 162 163 162 164 166 165 160 154 154 155 157 158 154 147 145 148 151 151 148 147 146 141 142 145 143 139 137 135 128 123 116 111 108 104 100 107 127 138 142 141 133 119 102 89 77 73 89 114 126 122 111 99 93 99 109 112 112 110 104 98 97 96 96 97 96 95 94 94 94 92 92 91 88 86
137 137 138 145 151 154 159 160 161 162 163 164 164 164 165 167 166 162 159 159 157 158 158 153 148 146 148 150 152 152 152 152 147 148 150 149 143 139 137 131 122 113 113 111 108 106 113 131 139 142 141 130 115 101 88 74 75 96 114 123 117 104 95 89 96 108 113 112 107 101 100 101 99 99 99 97 97 95 95 95 94 93 91 90 88
137 137 139 148 153 155 160 160 162 163 165 166 166 167 168 169 169 167 165 161 157 157 155 151 149 149 150 150 153 154 155 155 153 152 152 151 146 141 139 132 121 113 115 115 112 112 117 134 142 144 140 126 114 103 88 76 82 103 115 118 110 101 96 90 98 109 111 110 107 105 106 105 101 99 99 98 98 97 96 95 94 94 92 91 90
137 138 141 150 155 157 160 161 164 165 167 169 168 170 171 170 168 168 165 159 156 155 154 153 152 153 154 152 154 156 156 155 157 156 151 151 147 144 139 130 120 113 117 119 118 118 120 135 148 149 138 128 119 105 90 81 88 109 117 117 112 105 98 94 103 108 108 109 107 105 104 104 102 101 101 100 100 100 100 99 97 95 95 91 91
137 142 146 153 157 159 162 165 167 168 169 171 171 171 171 170 168 169 167 161 159 158 157 157 155 156 156 152 153 159 160 157 159 159 153 152 150 145 137 128 119 114 121 125 125 126 124 135 150 152 141 132 123 108 95 85 91 115 123 123 118 105 96 101 109 110 108 108 109 109 108 107 105 103 102 102 101 101 101 101 101 100 99 95 93
139 145 151 157 160 164 167 169 169 169 172 173 174 173 173 173 172 173 170 165 163 163 162 162 161 159 158 156 156 159 161 161 160 161 158 156 153 146 140 133 124 118 128 135 133 132 129 134 148 153 145 136 126 111 98 88 89 109 125 124 114 102 101 108 111 112 114 116 119 119 114 110 108 107 105 104 104 103 100 99 100 100 99 97 95
143 148 154 161 164 169 171 171 172 173 176 177 176 176 177 178 178 176 172 170 170 169 169 168 167 164 163 164 163 161 162 164 163 164 163 160 158 154 150 144 135 128 135 141 140 138 136 135 144 151 148 139 130 115 99 89 84 89 119 125 110 108 109 109 110 112 117 121 121 117 112 112 111 111 108 107 105 103 102 101 101 100 100 99 98
148 151 159 167 169 172 175 175 176 179 180 180 179 179 180 181 181 179 174 173 176 176 175 174 171 169 169 170 169 167 166 167 169 170 168 166 166 164 160 156 151 143 142 147 146 144 142 140 141 145 147 141 132 118 96 84 74 70 116 135 118 115 114 110 110 111 113 114 115 116 115 113 111 109 109 108 106 106 104 104 106 106 105 104 103
152 158 166 174 175 176 179 181 181 183 184 183 182 182 183 184 183 179 176 177 179 179 178 175 174 173 172 173 173 172 171 170 172 174 173 174 174 171 170 169 167 157 152 152 150 149 147 146 145 145 147 142 134 118 90 72 60 62 117 141 129 122 119 113 110 109 112 115 117 118 116 114 112 109 108 108 107 107 105 104 105 106 107 106 105
157 166 172 177 180 181 182 184 185 186 187 185 184 186 186 186 184 179 178 180 179 178 178 175 176 177 175 174 176 175 174 172 174 176 178 182 180 178 180 182 178 169 161 159 156 153 152 153 151 150 148 143 136 117 81 60 54 78 126 141 136 127 122 115 111 112 116 120 120 118 117 117 115 111 111 111 109 108 109 108 108 110 113 115 114
165 171 174 179 182 185 188 188 188 188 189 188 187 188 189 188 185 181 181 180 179 178 178 178 179 180 178 177 179 179 179 176 176 178 182 186 184 181 182 186 184 176 168 164 162 158 155 158 158 157 152 146 141 116 74 57 59 101 137 143 139 131 124 120 116 116 117 117 118 119 118 117 116 115 111 109 108 106 104 103 102 102 105 107 106
173 172 174 178 183 189 193 192 190 191 193 193 190 189 192 192 188 185 184 181 180 180 180 182 183 182 180 181 184 183 183 182 179 180 184 186 185 181 180 186 185 178 173 170 168 162 158 159 162 163 156 151 149 123 72 64 73 117 147 148 142 135 131 130 123 120 119 115 115 118 120 120 117 114 108 105 105 102 99 99 95 89 94 101 102
177 174 175 178 186 194 197 196 193 192 194 194 192 193 195 195 192 190 189 185 182 183 183 184 185 185 183 183 185 185 186 188 185 184 185 185 184 179 173 177 176 174 174 174 171 166 163 160 160 164 161 156 152 143 158 121 96 129 157 155 146 141 138 135 127 123 123 119 116 115 117 121 121 117 116 114 112 109 107 106 98 86 86 93 101
177 179 181 180 188 200 202 201 197 194 194 193 193 195 196 196 194 194 194 189 186 186 187 187 187 186 185 184 184 185 187 189 188 187 184 181 179 172 164 162 163 167 172 175 175 171 168 162 156 157 160 158 156 170 190 161 115 134 162 161 148 143 140 137 131 127 128 124 120 117 117 122 125 123 121 121 119 116 112 106 99 92 87 84 87
175 181 187 183 190 202 208 209 204 199 196 194 194 194 195 197 197 197 197 194 190 189 190 190 190 188 186 186 187 187 188 187 186 185 181 178 174 166 161 157 156 161 166 169 173 176 176 168 160 159 166 179 192 190 178 161 140 142 161 168 162 151 144 140 136 134 134 129 125 126 127 129 128 122 120 123 124 122 118 110 101 96 90 85 84
179 183 188 189 194 201 209 216 211 204 198 197 196 194 195 198 198 199 201 199 195 193 193 194 193 193 191 191 193 192 190 188 186 184 179 175 172 166 163 163 161 160 158 160 166 174 179 176 169 170 184 209 212 193 176 175 170 155 160 174 177 167 154 146 143 143 143 137 132 131 130 132 132 126 122 124 128 126 125 122 113 104 95 89 89
185 184 189 195 197 199 207 219 216 206 201 201 198 196 197 200 200 201 205 204 200 196 195 196 196 196 197 197 197 196 193 190 187 185 180 176 174 169 167 168 168 168 168 166 163 167 173 178 183 190 208 220 210 188 180 189 185 165 160 174 181 173 162 151 147 149 150 145 138 131 127 130 133 133 131 132 137 139 141 135 120 114 112 106 108
184 184 191 201 200 198 202 219 218 204 201 203 201 198 199 202 203 203 207 208 204 200 198 199 200 199 200 201 199 196 194 193 190 187 183 178 176 172 174 177 177 180 182 180 176 176 180 186 193 199 207 208 196 181 180 184 184 173 163 174 182 175 163 154 151 153 155 149 137 130 130 133 133 135 139 144 151 155 155 143 111 103 109 119 134
180 180 186 198 202 197 199 217 217 202 200 204 203 201 200 204 206 205 206 209 209 205 202 203 205 203 201 201 199 197 196 195 193 191 186 180 178 178 181 181 176 174 174 176 174 174 180 179 176 176 182 189 184 177 178 174 176 177 168 174 182 176 165 155 153 155 156 148 137 133 136 138 135 137 142 147 155 158 152 134 108 102 101 104 140
178 180 182 187 194 194 201 217 213 201 200 204 205 203 202 206 207 205 205 208 211 211 208 207 208 207 204 201 200 199 198 196 194 191 188 182 180 181 179 173 167 164 170 177 172 165 170 169 167 168 167 174 176 172 174 168 167 173 170 173 179 176 166 154 154 157 155 148 140 141 143 140 136 140 144 145 150 149 139 126 115 117 116 115 131
176 182 178 177 187 191 199 215 209 200 201 205 207 205 205 207 207 206 205 207 211 213 213 210 208 207 206 203 201 200 197 195 194 193 189 184 182 179 171 165 163 168 179 185 178 168 169 164 166 175 168 166 171 169 171 169 166 170 171 172 174 173 165 158 157 155 152 150 147 149 151 147 143 145 145 144 145 141 132 127 128 134 130 123 115
173 179 174 173 181 180 181 210 209 204 204 205 207 207 208 209 209 208 207 208 210 212 212 208 206 204 206 205 202 199 197 197 196 194 189 184 181 175 165 162 168 176 181 181 177 175 174 160 157 173 175 168 168 165 164 168 168 169 170 170 170 170 168 165 163 159 155 154 155 156 158 162 161 154 148 146 145 140 133 130 135 143 140 130 117
169 173 170 171 173 167 174 201 207 209 208 207 208 209 211 212 213 213 210 210 211 212 210 207 206 204 205 205 203 199 197 198 196 193 189 183 178 176 172 170 175 182 178 170 173 180 177 160 153 165 179 174 172 167 162 163 163 164 165 163 165 169 171 168 167 168 165 161 159 159 164 171 170 159 152 149 145 136 126 124 134 152 161 155 135
167 172 167 164 168 171 184 196 202 208 207 208 209 210 213 214 214 213 213 213 212 210 209 209 209 207 205 204 203 200 197 197 196 190 185 179 177 182 182 179 183 188 182 173 176 184 179 168 163 168 174 176 177 170 163 161 158 160 160 155 159 167 171 172 177 179 176 172 168 168 173 172 167 160 154 148 139 129 117 115 128 144 155 158 147
168 176 169 167 175 180 185 186 193 203 203 204 206 207 211 212 212 212 212 213 210 208 210 211 210 208 206 204 201 199 196 197 198 191 186 183 179 184 184 183 188 191 191 187 187 196 189 177 172 168 164 163 168 166 163 160 152 150 152 151 155 162 165 171 182 185 183 182 177 176 179 171 164 160 154 147 137 125 115 116 126 130 132 136 136
169 177 175 176 182 181 180 180 186 196 198 199 202 203 202 201 206 210 210 211 210 208 208 208 209 206 205 205 200 196 196 197 198 194 190 190 183 184 189 192 194 193 194 188 185 197 191 174 168 167 164 160 161 165 163 155 143 139 142 147 151 152 157 169 180 184 182 182 181 179 178 172 169 165 158 153 144 129 121 118 117 115 115 121 123
171 178 181 182 183 180 177 180 186 193 197 200 202 202 201 199 203 208 209 209 211 210 207 204 206 206 205 204 198 194 194 192 191 190 186 187 188 192 197 196 195 191 186 180 183 192 185 174 170 170 169 165 165 167 164 156 145 145 145 134 127 131 148 168 179 181 179 179 180 176 173 174 174 171 167 159 149 137 127 123 114 110 115 123 123
176 181 184 182 181 178 177 181 189 194 198 202 204 205 204 202 203 209 211 211 212 211 207 204 203 205 206 204 198 196 194 187 185 189 188 190 196 198 195 193 193 188 182 180 187 195 188 178 178 178 171 165 165 168 168 163 154 150 144 136 124 118 139 165 168 168 173 176 180 177 175 177 176 176 176 162 153 152 145 140 123 118 123 128 128
182 186 186 182 178 178 180 183 190 195 198 203 207 207 205 202 202 206 208 209 212 211 210 210 206 206 205 203 200 196 192 187 187 192 194 196 201 202 198 195 194 189 186 186 192 199 196 184 181 182 175 166 165 170 172 171 165 156 141 108 114 130 163 172 156 160 173 173 177 183 180 178 174 173 174 162 157 164 168 161 131 128 135 136 135
187 189 189 186 181 179 181 184 188 194 199 205 208 207 202 199 197 192 191 194 200 202 205 208 208 208 206 204 203 197 190 190 194 197 198 202 206 207 204 200 199 194 191 194 198 202 203 192 184 184 182 176 174 176 179 183 178 168 156 146 132 151 208 160 150 158 178 175 175 184 184 183 180 172 168 166 166 171 176 168 146 142 145 141 138
190 191 194 199 189 178 177 181 186 192 199 205 208 205 199 196 194 186 181 181 185 194 201 204 205 207 207 206 205 202 197 197 200 202 202 206 208 208 207 204 202 199 197 203 205 202 199 195 190 189 189 185 179 178 182 186 183 178 171 170 165 193 174 152 149 154 170 180 184 187 189 188 186 175 169 171 173 176 176 168 155 152 148 142 141
193 193 203 224 202 175 174 180 186 192 198 204 208 205 199 198 199 194 189 186 187 196 204 206 205 206 208 206 203 201 200 200 201 202 204 205 206 209 210 209 208 206 206 206 209 208 200 196 196 194 192 190 183 180 183 184 184 191 197 187 197 206 173 163 161 153 144 175 191 191 192 185 182 179 175 173 172 173 171 166 161 156 150 145 145
194 192 197 215 202 172 177 183 188 194 199 203 207 204 199 199 201 200 197 193 194 198 202 205 205 206 208 206 203 201 199 198 197 199 201 201 205 213 215 212 211 212 214 211 211 211 203 198 197 196 195 195 192 186 185 184 186 195 200 197 216 195 173 169 164 152 133 119 169 185 186 179 177 177 176 174 172 170 167 167 168 162 156 154 155
196 187 182 184 178 166 176 191 196 199 201 204 206 204 201 201 201 202 200 196 195 197 199 203 205 206 207 205 203 202 198 196 196 197 198 200 207 217 217 211 210 214 216 213 209 207 204 200 196 195 196 199 199 194 190 187 188 191 191 192 192 169 165 167 162 152 138 137 155 173 171 170 173 177 178 175 171 170 166 167 172 170 166 163 164
212 193 187 183 179 176 181 198 204 203 206 207 207 204 203 203 202 203 201 194 190 190 194 200 202 202 202 202 202 200 197 195 195 197 198 201 208 216 216 210 208 213 216 214 208 205 204 201 198 197 196 198 200 199 197 193 190 191 190 187 174 160 156 154 159 157 145 137 139 156 164 163 162 173 179 175 171 170 167 170 172 169 170 168 169
299 230 213 195 188 186 187 199 209 209 208 205 204 204 204 204 203 203 202 197 190 186 186 191 196 198 198 199 200 198 197 195 194 197 201 204 209 215 217 212 208 210 215 215 209 205 202 198 199 198 196 198 199 201 200 195 189 189 192 192 184 173 167 167 168 164 155 142 132 142 161 161 157 167 176 175 173 171 168 174 173 163 163 167 173
Height
780 780 782 782 784 784 786 787 788 788 790 791 792 794 795 796 797 798 798 799 799 800 801 802 802 803 804 805 806 807 808 809 810 811 812 813 814 815 816 817 818 819 820 820 820 820 820 820 819 819 820 820 820 820 820 819 819 819 819 819 819 818 818 818 819 819 819 820 820 820 820 820 820 819 819 819 819 818 818 818 818 818 818 818 818
778 780 782 783 784 785 786 787 788 789 790 792 793 795 796 797 798 799 799 800 800 801 802 802 803 804 805 806 807 808 809 810 811 812 813 814 815 816 817 818 819 820 821 821 821 821 821 821 821 821 821 822 821 821 821 821 820 820 821 821 821 820 820 820 820 821 821 822 822 821 821 821 821 821 821 821 821 821 820 820 820 819 819 820 820
777 781 782 784 785 785 786 787 789 790 791 792 794 795 796 798 799 800 800 801 801 802 802 803 804 805 806 807 808 809 810 811 812 813 814 815 816 817 818 819 820 821 821 822 822 822 823 823 823 822 823 823 823 823 823 823 822 822 823 823 823 822 822 822 822 823 823 823 823 822 822 822 822 822 822 822 822 823 822 822 822 821 821 822 822
777 780 782 785 786 786 787 788 789 790 792 793 795 796 797 799 799 800 801 801 802 802 803 803 805 805 807 807 809 810 811 812 813 814 815 816 818 819 820 820 821 822 822 823 823 823 824 824 824 824 824 825 825 825 825 825 825 825 825 825 824 824 823 824 824 824 824 824 824 824 824 824 824 824 824 824 825 825 824 824 824 823 823 823 823
777 781 783 786 787 787 787 788 790 791 793 794 796 797 798 799 800 801 801 802 802 803 803 804 805 806 807 808 809 810 812 813 814 815 816 817 819 820 821 822 822 823 823 823 824 824 825 825 825 826 826 827 827 827 827 827 827 827 826 826 825 825 825 826 826 826 826 826 826 826 826 826 826 826 826 826 826 827 826 826 826 825 825 825 825
778 781 783 786 788 789 789 790 791 793 794 796 797 798 799 800 801 801 802 803 803 804 804 805 805 807 808 809 810 811 813 814 815 816 817 818 819 821 822 822 823 824 824 824 824 825 825 826 826 827 827 828 829 829 829 828 828 828 828 827 827 827 826 827 828 828 828 828 828 828 828 828 828 828 828 828 828 828 828 828 827 827 827 827 826
779 781 784 786 788 790 791 791 793 794 795 797 798 799 800 801 802 802 803 803 803 804 805 805 806 807 808 810 811 812 813 814 816 817 818 819 820 821 822 823 824 825 825 825 825 825 826 826 827 827 828 829 830 830 830 830 830 830 829 829 828 828 827 828 829 830 829 829 829 829 829 829 829 829 830 830 830 830 830 830 829 829 828 828 828
780 783 784 785 788 791 792 793 794 795 796 798 798 799 800 801 802 802 803 803 804 805 805 806 806 808 809 810 811 813 814 815 816 817 818 819 820 822 823 824 824 825 825 826 826 826 827 827 827 828 829 830 830 831 831 831 831 831 831 830 829 828 827 828 830 831 831 831 831 831 831 831 831 831 831 831 831 831 831 831 831 830 830 830 829
782 783 785 786 788 790 792 793 794 795 796 798 798 799 800 801 802 803 804 804 804 805 806 806 807 809 810 811 812 814 815 816 817 818 819 820 821 822 823 824 825 826 826 827 827 827 827 828 829 829 830 830 831 832 832 833 833 833 832 831 829 829 828 829 831 831 832 832 832 832 832 832 832 832 833 833 833 832 832 832 832 832 831 831 831
782 784 785 786 788 791 792 793 794 795 796 797 798 799 800 801 802 803 804 804 805 805 806 807 808 810 811 812 813 814 815 816 818 818 819 820 822 823 824 825 825 826 826 827 828 828 828 829 829 830 831 831 832 833 834 834 834 834 832 831 830 830 830 830 831 832 833 833 833 833 833 834 833 834 834 834 834 834 834 834 834 833 833 832 832
783 785 786 787 789 791 792 793 794 795 796 797 798 799 801 802 803 804 805 805 806 806 807 809 810 811 812 813 814 815 816 817 818 819 820 821 822 823 824 825 826 826 827 828 828 829 830 830 830 831 831 832 833 834 835 835 835 835 833 833 832 832 832 832 833 833 834 834 834 834 834 835 834 835 835 836 836 836 835 835 836 835 835 835 834
785 786 787 788 789 791 793 794 795 796 797 797 799 800 801 802 804 805 805 806 807 808 809 810 811 812 813 814 815 816 817 818 818 819 820 821 823 823 824 825 826 827 827 828 829 830 831 831 831 831 832 832 833 834 835 836 836 835 834 833 833 833 834 834 834 834 835 834 835 835 835 835 835 836 837 837 837 837 837 837 837 837 837 836 836
785 786 788 789 790 793 793 795 796 796 797 798 799 800 802 803 804 806 807 808 808 809 810 811 812 813 813 814 815 817 817 818 819 820 821 822 823 824 825 826 826 827 828 829 830 831 832 832 832 832 833 833 834 835 836 836 836 835 835 834 835 835 835 835 835 835 835 836 836 836 837 837 837 837 837 838 838 838 838 838 838 838 838 837 837
786 787 788 790 791 794 794 796 797 797 799 799 801 802 803 804 805 807 808 809 809 810 811 812 813 813 814 815 816 817 818 819 820 820 821 822 823 824 825 826 827 828 828 829 830 831 832 833 833 833 834 834 835 836 836 836 836 835 835 836 836 836 837 837 836 836 836 837 837 838 838 838 838 838 838 839 839 839 839 839 839 839 839 839 838
786 788 790 792 793 795 796 797 797 799 800 800 802 803 804 805 807 808 809 810 810 811 811 813 813 814 814 815 816 817 818 819 820 821 822 823 824 825 826 827 827 828 829 830 831 832 833 833 834 834 835 835 836 836 836 836 836 836 836 836 837 837 838 837 837 837 837 838 839 839 839 839 839 839 840 840 840 840 841 841 840 840 840 840 840
787 789 791 793 795 796 797 798 798 800 800 802 803 804 805 806 808 809 809 810 810 811 811 813 813 814 815 816 817 818 819 820 821 822 823 824 825 826 826 827 827 828 829 830 831 832 833 834 835 835 836 836 837 837 837 837 837 836 837 837 839 839 839 838 838 838 839 839 839 840 840 840 840 840 841 841 841 841 842 842 842 842 842 842 841
787 789 792 794 796 797 797 798 799 800 801 803 803 805 806 806 807 808 808 809 809 810 811 813 814 814 815 816 817 818 820 820 822 822 823 825 825 826 827 828 828 829 830 831 832 832 833 834 835 836 837 838 838 838 838 838 837 837 838 839 840 840 840 839 839 839 840 840 841 841 841 841 842 842 842 842 842 842 842 843 843 843 843 843 843
789 791 792 795 796 797 798 799 800 801 802 803 804 805 805 806 807 807 808 809 810 811 812 813 813 814 815 816 817 819 820 821 822 823 824 825 826 827 827 828 829 829 830 831 832 833 834 834 836 837 838 839 839 839 840 840 839 839 839 840 841 841 841 840 840 840 841 841 842 842 842 843 843 843 843 843 843 843 843 844 844 844 844 844 843
791 792 793 795 796 798 798 799 800 801 802 803 804 804 805 806 807 809 810 811 812 812 813 813 814 815 815 816 818 819 820 821 823 824 825 826 826 827 828 829 829 830 831 832 833 834 834 835 836 837 839 839 840 841 841 841 841 840 841 841 842 842 842 841 841 841 842 842 843 843 843 844 844 844 844 844 844 844 844 844 844 844 844 845 844
792 793 793 795 796 798 799 800 800 801 803 803 804 805 806 807 808 810 811 812 813 813 814 815 815 816 816 817 818 819 821 822 823 824 825 826 827 828 829 829 830 831 832 833 834 835 835 835 836 838 839 840 841 842 842 842 842 841 841 841 842 843 842 842 842 842 843 843 844 844 844 845 845 845 845 845 845 845 845 845 845 845 845 845 845
794 793 794 796 797 798 798 800 801 802 804 804 804 805 806 807 807 809 810 812 813 814 815 816 817 817 818 818 819 820 821 822 823 824 825 827 827 828 829 830 831 831 832 833 835 835 836 836 837 838 840 841 842 842 843 843 842 842 842 842 843 843 843 843 843 843 843 844 844 844 845 845 846 846 846 846 846 846 846 846 846 846 846 846 846
794 795 795 796 797 798 799 800 801 802 803 803 804 804 805 806 807 808 810 811 812 814 814 816 817 818 819 819 820 820 821 822 823 824 825 826 828 829 830 830 831 832 833 834 835 836 837 837 838 839 840 841 842 843 843 843 842 843 843 843 844 844 844 844 844 844 844 844 845 845 846 846 847 847 847 847 847 847 847 847 847 847 847 848 848
795 795 796 796 796 797 799 800 800 801 801 802 803 804 805 806 807 808 809 811 812 813 814 815 816 818 819 820 821 821 822 823 823 825 825 827 828 829 830 831 831 832 833 834 836 836 837 838 838 840 841 842 842 843 843 842 842 842 843 844 844 845 845 845 845 845 845 845 846 846 847 847 848 848 848 849 849 849 849 848 848 848 848 848 849
795 795 795 795 796 798 799 800 800 801 801 802 803 804 805 805 806 807 808 809 811 812 814 815 816 817 819 820 821 822 823 824 824 825 826 827 828 829 830 831 832 833 834 834 836 837 838 838 839 840 841 842 842 843 843 842 842 842 843 844 845 845 845 845 845 846 846 846 847 847 847 848 849 849 850 850 850 850 850 850 849 849 849 849 849
794 793 793 794 796 798 799 800 800 801 802 803 804 805 805 806 806 806 807 808 810 812 814 815 816 817 819 820 821 822 824 824 825 826 826 827 827 829 830 831 832 833 834 835 836 837 838 839 840 840 841 842 843 843 843 842 842 842 843 844 845 846 846 846 846 846 847 847 848 848 848 848 849 850 850 851 851 851 851 851 850 850 850 850 850
793 791 791 793 795 798 799 800 801 802 803 804 805 806 806 807 807 807 808 809 810 812 814 815 816 818 819 820 821 822 823 824 825 826 827 827 827 829 830 831 832 833 834 835 836 837 838 839 840 841 842 842 843 843 843 843 843 843 843 844 845 846 846 846 846 847 847 848 849 849 849 849 849 850 851 851 852 852 852 851 851 851 851 850 851
796 795 794 795 797 800 801 801 802 803 803 804 805 806 807 808 809 809 809 809 810 811 813 814 816 817 818 819 820 822 823 823 825 826 827 827 828 828 829 830 831 832 833 834 836 837 838 839 840 841 842 842 843 843 843 844 843 843 844 844 845 846 846 846 846 847 848 849 849 850 850 850 850 850 851 852 853 853 853 853 852 852 851 851 851
799 801 798 797 799 802 803 804 804 804 804 805 805 806 807 809 810 810 810 809 810 811 812 814 815 817 818 819 820 821 822 823 824 825 826 827 828 828 830 830 831 832 833 834 836 837 838 839 841 841 842 843 843 844 844 844 844 844 845 845 846 846 847 847 846 847 848 849 850 850 851 851 851 851 852 853 854 855 855 855 854 853 852 852 852
796 801 800 798 800 804 806 806 805 805 805 805 806 807 808 809 811 811 811 810 810 811 812 814 815 816 818 819 820 821 821 822 824 825 826 827 828 829 830 830 831 832 833 834 835 836 838 839 841 842 842 843 843 844 843 844 845 845 845 846 847 847 847 848 847 847 848 849 850 850 851 852 852 852 852 853 855 856 856 856 855 854 854 853 853
796 800 802 800 800 804 807 807 806 806 806 806 806 807 808 809 811 812 812 812 811 812 813 814 815 816 818 819 820 820 821 822 823 824 825 826 827 829 830 830 831 832 833 834 835 836 838 839 841 841 842 843 843 843 843 844 844 845 845 846 847 848 848 848 848 848 849 849 850 851 851 852 853 853 853 854 856 857 857 857 856 855 855 855 855
796 798 801 801 799 802 806 808 807 807 807 806 806 807 807 809 811 812 813 812 812 812 813 814 815 816 817 818 819 820 820 821 822 823 824 825 827 828 829 830 831 831 833 834 835 836 837 839 841 841 842 842 842 843 843 844 844 844 845 846 847 847 848 849 849 849 850 850 850 851 851 853 853 853 854 855 857 858 858 857 857 856 856 856 856
794 796 800 802 799 800 805 808 808 808 808 807 806 806 806 808 810 812 812 812 813 813 813 814 814 816 817 818 818 819 820 821 822 823 823 824 826 827 829 830 831 831 832 834 835 836 837 839 840 841 841 841 842 843 843 843 844 844 844 845 846 847 848 849 849 850 851 851 851 851 852 853 854 854 855 856 857 858 858 857 857 857 857 857 857
792 794 798 801 800 800 804 808 809 808 807 806 806 806 806 807 808 810 812 812 812 813 813 814 814 815 816 817 818 819 820 821 822 822 823 824 825 826 828 829 830 831 832 833 834 835 836 837 838 839 840 840 841 842 843 843 843 844 844 844 845 847 848 849 850 850 852 852 852 852 853 854 854 855 855 857 858 858 858 858 857 857 857 857 857
789 790 791 796 800 800 803 808 810 807 805 805 805 805 805 805 807 809 810 811 811 812 812 813 814 815 816 817 818 819 820 820 821 822 822 823 824 826 827 829 830 831 832 833 834 835 836 836 836 837 838 839 840 841 841 842 843 843 844 844 845 847 848 849 850 851 852 853 852 853 854 854 855 855 856 857 858 858 858 858 858 858 858 858 858
787 786 784 789 796 799 804 809 809 806 804 804 803 803 803 803 804 806 807 809 809 810 812 813 814 814 815 816 817 818 819 820 821 822 822 823 824 825 827 828 829 830 832 833 833 834 835 835 835 836 838 839 839 840 841 841 842 843 843 844 845 846 848 850 851 852 852 852 853 854 854 855 856 856 857 857 858 859 858 858 858 858 858 858 858
783 786 783 783 790 797 806 811 809 805 802 802 801 801 801 801 802 803 805 806 808 809 810 812 813 813 814 815 817 817 818 819 820 821 821 822 823 825 827 828 829 830 831 832 833 834 834 834 835 836 837 838 839 839 840 841 842 843 844 844 845 846 848 850 851 852 852 852 853 854 855 856 857 857 858 858 858 859 859 858 858 858 858 859 858
782 787 785 782 786 795 807 812 809 805 801 800 799 799 800 800 801 802 804 805 807 808 809 810 811 812 813 814 815 816 817 818 819 820 820 821 823 824 826 827 827 828 830 831 832 833 833 834 835 836 836 837 838 839 840 841 842 843 844 845 845 846 847 849 850 851 851 852 854 855 856 856 857 858 858 859 859 859 858 858 858 859 859 859 859
782 787 789 787 788 794 800 803 804 803 801 799 799 800 800 801 801 803 804 805 806 807 808 809 810 811 812 813 815 815 816 817 818 819 820 821 822 824 825 826 826 828 829 830 831 832 833 833 834 835 836 836 837 838 839 840 842 843 845 846 846 847 848 849 850 851 852 853 854 855 856 857 858 859 859 859 859 859 858 858 859 859 859 860 860
783 785 788 789 788 789 789 792 796 799 800 800 800 800 800 800 801 803 804 805 806 806 807 808 808 809 810 812 814 814 815 816 816 818 821 821 821 823 825 825 826 828 829 830 831 832 832 833 834 835 836 836 837 838 839 840 842 844 845 846 847 848 848 849 850 852 852 853 854 855 857 858 859 859 860 860 860 859 859 859 859 859 860 860 860
782 783 785 785 784 783 784 787 792 796 798 798 799 799 799 800 801 803 804 805 805 806 806 807 807 808 809 810 812 813 815 815 816 818 821 821 821 823 824 824 825 827 828 829 831 832 832 832 833 834 834 835 837 838 839 840 842 844 846 847 848 849 849 849 851 852 853 853 854 856 857 858 859 859 860 860 861 860 860 859 859 860 860 860 860
781 781 781 780 779 780 782 786 790 794 795 794 795 796 796 798 800 801 803 804 805 805 806 806 807 807 808 809 810 812 814 815 816 817 819 820 821 822 823 824 825 826 827 828 830 832 832 832 832 833 833 834 836 838 839 839 842 845 847 848 848 850 850 851 852 853 853 854 855 856 857 858 859 859 860 861 861 861 861 860 860 861 861 861 861
777 776 775 775 777 778 779 783 788 790 791 791 791 792 793 795 797 799 800 802 804 805 806 806 807 807 808 808 809 811 812 814 815 816 818 819 820 822 822 823 824 826 827 827 829 831 831 831 831 832 833 834 835 837 838 838 841 844 846 848 849 851 852 852 853 854 854 854 854 855 856 857 858 859 860 861 861 862 862 861 861 861 862 862 862
773 772 771 770 772 774 776 779 783 786 787 788 788 789 791 793 795 797 798 800 802 804 806 807 807 808 808 809 809 810 811 813 814 815 817 819 820 821 821 822 824 825 826 826 829 831 830 830 830 830 832 835 836 837 837 838 839 843 846 848 849 850 852 853 853 854 854 854 855 855 856 857 858 859 860 861 862 862 862 862 862 862 862 863 863
772 770 770 768 766 767 770 774 778 781 783 784 784 785 788 792 795 796 797 799 801 803 806 807 808 808 809 808 808 809 810 812 813 814 816 818 819 820 820 821 823 824 825 825 827 829 829 829 830 830 830 833 835 837 838 838 838 840 844 847 849 851 852 852 852 854 854 854 855 855 856 857 858 859 860 861 861 862 863 863 863 863 863 863 863
768 767 767 767 762 760 764 769 774 778 780 781 783 784 786 789 793 795 797 798 800 802 804 806 807 807 808 808 808 808 810 811 813 814 815 817 818 819 819 820 822 823 824 824 826 827 827 828 829 829 829 830 832 835 837 839 839 839 840 843 847 850 850 850 851 853 853 854 855 856 857 858 858 859 860 861 861 862 863 863 863 864 864 864 864
766 766 767 769 766 762 763 769 773 777 780 783 785 785 784 786 789 791 793 795 797 799 801 803 805 806 807 808 809 809 811 812 813 814 815 816 817 818 819 820 821 822 822 823 825 826 827 828 828 828 829 829 830 833 836 837 839 839 839 839 841 844 845 847 850 853 853 854 855 856 857 858 859 859 860 861 862 862 863 863 864 864 864 865 865
770 770 774 777 776 772 770 772 774 777 780 784 787 786 783 783 785 787 789 792 794 796 799 801 803 804 806 807 809 810 811 812 813 814 815 816 817 818 819 819 820 820 821 822 824 825 826 827 827 828 829 830 830 831 833 836 837 839 839 839 839 839 840 843 846 849 852 854 854 855 857 858 859 859 860 861 861 862 863 864 864 865 865 866 866
772 773 776 779 780 779 778 778 777 778 780 784 787 786 782 781 782 785 787 789 791 794 797 800 802 804 806 807 808 809 811 812 813 814 815 816 817 817 818 819 819 820 820 821 822 824 825 826 827 828 829 830 830 830 832 834 835 837 838 839 839 839 840 841 842 844 848 852 854 855 856 857 859 860 860 861 861 862 863 864 864 865 866 866 866
774 773 774 775 776 778 781 782 782 781 781 784 786 785 782 781 781 783 785 788 790 793 796 799 801 803 805 806 808 809 810 812 812 813 814 815 816 816 817 818 819 819 819 820 822 823 824 824 825 826 828 829 830 831 831 832 834 835 837 837 838 839 840 841 843 844 845 849 853 854 855 857 858 860 861 861 862 862 863 864 864 865 866 866 867
779 778 775 773 773 774 777 780 781 781 782 784 785 785 783 782 782 782 784 786 789 792 795 798 800 802 804 805 807 808 810 811 812 812 813 814 815 815 817 818 818 818 818 819 821 822 822 823 824 825 826 828 829 830 831 831 833 835 836 836 837 838 840 841 842 844 845 847 850 852 853 855 857 859 861 862 862 862 863 864 864 865 866 866 867
783 784 780 775 772 770 772 777 780 780 781 783 784 784 784 783 783 783 783 784 787 790 793 796 798 800 802 804 806 807 809 810 811 811 812 813 814 814 816 817 817 817 816 818 820 821 821 822 823 824 825 826 828 829 830 831 833 834 835 835 835 836 837 838 840 842 844 845 848 851 853 854 856 858 860 862 862 862 863 864 865 865 866 867 867